| time (UTC) | temp C | wind direction | speed KPH | gust KPH | rain 1hr cm | rain 24hr cm | rain mn cm | humidity % | barometer mb |
| 20260507105440 | 16 | 26 | 1.6 | 12.9 | 0.00 | 0.00 | 0.00 | 63 | 1014.7 |
| 20260507104939 | 16 | 279 | 0.0 | 12.9 | 0.00 | 0.00 | 0.00 | 64 | 1014.7 |
| 20260507104440 | 16 | 114 | 6.4 | 11.3 | 0.00 | 0.00 | 0.00 | 65 | 1014.8 |
| 20260507103939 | 15 | 85 | 4.8 | 12.9 | 0.00 | 0.00 | 0.00 | 62 | 1014.8 |
| 20260507103441 | 16 | 44 | 3.2 | 12.9 | 0.00 | 0.00 | 0.00 | 61 | 1015.0 |
| 20260507102942 | 16 | 107 | 6.4 | 12.9 | 0.00 | 0.00 | 0.00 | 62 | 1014.8 |
| 20260507102441 | 16 | 331 | 1.6 | 12.9 | 0.00 | 0.00 | 0.00 | 61 | 1014.7 |
| 20260507101938 | 16 | 114 | 8.0 | 12.9 | 0.00 | 0.00 | 0.00 | 66 | 1015.0 |
| 20260507101440 | 15 | 106 | 4.8 | 11.3 | 0.00 | 0.00 | 0.00 | 63 | 1014.8 |
| 20260507100938 | 15 | 71 | 4.8 | 9.7 | 0.00 | 0.00 | 0.00 | 64 | 1015.0 |
| 20260507100440 | 15 | 27 | 4.8 | 8.0 | 0.00 | 0.00 | 0.00 | 64 | 1015.0 |
| 20260507095939 | 15 | 43 | 1.6 | 8.0 | 0.00 | 0.00 | 0.00 | 66 | 1015.3 |
| 20260507094938 | 14 | 240 | 4.8 | 12.9 | 0.00 | 0.00 | 0.00 | 67 | 1014.9 |
| 20260507094441 | 15 | 331 | 4.8 | 14.5 | 0.00 | 0.00 | 0.00 | 64 | 1014.9 |
| 20260507093939 | 16 | 87 | 8.0 | 12.9 | 0.00 | 0.00 | 0.00 | 65 | 1014.8 |
| 20260507093440 | 16 | 104 | 4.8 | 8.0 | 0.00 | 0.00 | 0.00 | 69 | 1014.8 |
| 20260507091939 | 15 | 93 | 6.4 | 12.9 | 0.00 | 0.00 | 0.00 | 70 | 1014.9 |
| 20260507091441 | 15 | 343 | 3.2 | 12.9 | 0.00 | 0.00 | 0.00 | 70 | 1014.9 |
| 20260507090952 | 14 | 80 | 0.0 | 12.9 | 0.00 | 0.00 | 0.00 | 71 | 1015.0 |
| 20260507090441 | 13 | 52 | 4.8 | 14.5 | 0.00 | 0.00 | 0.00 | 71 | 1014.9 |
| 20260507085938 | 13 | 2 | 1.6 | 14.5 | 0.00 | 0.00 | 0.00 | 70 | 1014.5 |
| 20260507084939 | 14 | 337 | 3.2 | 8.0 | 0.00 | 0.00 | 0.00 | 69 | 1014.7 |
| 20260507083938 | 14 | 25 | 3.2 | 4.8 | 0.00 | 0.00 | 0.00 | 70 | 1015.1 |
| 20260507083442 | 14 | 88 | 3.2 | 8.0 | 0.00 | 0.00 | 0.00 | 71 | 1014.7 |
| 20260507082939 | 15 | 289 | 3.2 | 8.0 | 0.00 | 0.00 | 0.00 | 72 | 1014.9 |
| 20260507082440 | 14 | 114 | 3.2 | 8.0 | 0.00 | 0.00 | 0.00 | 73 | 1014.7 |
| 20260507081939 | 14 | 64 | 3.2 | 8.0 | 0.00 | 0.00 | 0.00 | 73 | 1015.0 |
| 20260507081439 | 14 | 342 | 0.0 | 8.0 | 0.00 | 0.00 | 0.00 | 72 | 1015.2 |
| 20260507080440 | 13 | 106 | 4.8 | 9.7 | 0.00 | 0.00 | 0.00 | 75 | 1015.0 |
| 20260507075939 | 13 | 81 | 6.4 | 8.0 | 0.00 | 0.00 | 0.00 | 73 | 1015.1 |
| 20260507075440 | 13 | 97 | 4.8 | 9.7 | 0.00 | 0.00 | 0.00 | 74 | 1015.1 |
| 20260507074939 | 13 | 105 | 8.0 | 9.7 | 0.00 | 0.00 | 0.00 | 74 | 1015.1 |
| 20260507074440 | 14 | 75 | 3.2 | 9.7 | 0.00 | 0.00 | 0.00 | 72 | 1015.4 |
| 20260507073941 | 14 | 92 | 3.2 | 8.0 | 0.00 | 0.00 | 0.00 | 72 | 1015.1 |
| 20260507073440 | 14 | 103 | 3.2 | 8.0 | 0.00 | 0.00 | 0.00 | 71 | 1015.4 |
| 20260507072939 | 15 | 97 | 4.8 | 8.0 | 0.00 | 0.00 | 0.00 | 69 | 1014.9 |
| 20260507072440 | 14 | 91 | 4.8 | 8.0 | 0.00 | 0.00 | 0.00 | 72 | 1014.8 |
| 20260507071939 | 13 | 50 | 1.6 | 8.0 | 0.00 | 0.00 | 0.00 | 72 | 1015.0 |
| 20260507071441 | 14 | 79 | 4.8 | 8.0 | 0.00 | 0.00 | 0.00 | 70 | 1015.0 |
| 20260507070440 | 13 | 73 | 1.6 | 4.8 | 0.00 | 0.00 | 0.00 | 72 | 1015.0 |
| 20260507065942 | 13 | 342 | 1.6 | 4.8 | 0.00 | 0.00 | 0.00 | 71 | 1014.8 |
| 20260507065440 | 13 | 69 | 1.6 | 6.4 | 0.00 | 0.00 | 0.00 | 71 | 1014.9 |
| 20260507064940 | 13 | 75 | 3.2 | 6.4 | 0.00 | 0.00 | 0.00 | 73 | 1014.9 |
| 20260507064441 | 12 | 309 | 1.6 | 3.2 | 0.00 | 0.00 | 0.00 | 73 | 1015.1 |
| 20260507063938 | 13 | 295 | 0.0 | 3.2 | 0.00 | 0.00 | 0.00 | 73 | 1015.0 |
| 20260507063443 | 12 | 110 | 1.6 | 3.2 | 0.00 | 0.00 | 0.00 | 75 | 1014.9 |
| 20260507062944 | 11 | 51 | 0.0 | 3.2 | 0.00 | 0.03 | 0.00 | 77 | 1014.8 |
| 20260507061939 | 11 | 250 | 1.6 | 3.2 | 0.00 | 0.03 | 0.00 | 77 | 1014.4 |
| 20260507061440 | 11 | 271 | 0.0 | 3.2 | 0.00 | 0.03 | 0.00 | 78 | 1014.5 |
| 20260507060939 | 11 | 241 | 0.0 | 3.2 | 0.00 | 0.03 | 0.00 | 78 | 1014.1 |
| 20260507060440 | 11 | 248 | 0.0 | 1.6 | 0.00 | 0.03 | 0.00 | 80 | 1014.3 |
| 20260507055939 | 10 | 279 | 0.0 | 3.2 | 0.00 | 0.03 | 0.00 | 81 | 1014.4 |
| 20260507055440 | 9 | 245 | 0.0 | 3.2 | 0.00 | 0.03 | 0.00 | 80 | 1014.3 |
| 20260507054940 | 9 | 226 | 1.6 | 3.2 | 0.00 | 0.03 | 0.00 | 81 | 1014.2 |
| 20260507054440 | 9 | 242 | 0.0 | 3.2 | 0.00 | 0.03 | 0.00 | 82 | 1014.1 |
| 20260507052940 | 7 | 231 | 0.0 | 4.8 | 0.00 | 0.03 | 0.00 | 84 | 1014.0 |
| 20260507052441 | 7 | 251 | 3.2 | 4.8 | 0.00 | 0.03 | 0.00 | 84 | 1014.2 |
| 20260507051953 | 7 | 243 | 3.2 | 4.8 | 0.00 | 0.03 | 0.00 | 85 | 1014.3 |
| 20260507051445 | 7 | 238 | 1.6 | 3.2 | 0.00 | 0.03 | 0.00 | 87 | 1014.0 |
| 20260507050940 | 7 | 275 | 0.0 | 3.2 | 0.00 | 0.03 | 0.00 | 88 | 1013.9 |
| 20260507050442 | 7 | 246 | 0.0 | 3.2 | 0.00 | 0.03 | 0.00 | 89 | 1013.8 |
| 20260507045940 | 6 | 100 | 1.6 | 3.2 | 0.00 | 0.03 | 0.00 | 90 | 1013.8 |
| 20260507045443 | 6 | 172 | 0.0 | 1.6 | 0.00 | 0.03 | 0.00 | 90 | 1013.9 |
| 20260507044930 | 5 | 50 | 0.0 | 1.6 | 0.00 | 0.03 | 0.00 | 90 | 1013.8 |
| 20260507044426 | 5 | 269 | 0.0 | 3.2 | 0.00 | 0.03 | 0.00 | 90 | 1013.7 |
| 20260507043927 | 5 | 95 | 0.0 | 3.2 | 0.00 | 0.03 | 0.00 | 90 | 1013.8 |
| 20260507043427 | 5 | 80 | 0.0 | 3.2 | 0.00 | 0.03 | 0.00 | 90 | 1013.6 |
| 20260507042926 | 5 | 254 | 0.0 | 3.2 | 0.00 | 0.03 | 0.00 | 90 | 1013.6 |
| 20260507042428 | 5 | 109 | 0.0 | 3.2 | 0.00 | 0.03 | 0.00 | 90 | 1013.6 |
| 20260507041915 | 5 | 99 | 0.0 | 3.2 | 0.00 | 0.03 | 0.00 | 90 | 1013.7 |
| 20260507041415 | 5 | 77 | 1.6 | 3.2 | 0.00 | 0.03 | 0.00 | 90 | 1013.6 |
| 20260507040915 | 5 | 92 | 0.0 | 3.2 | 0.00 | 0.03 | 0.00 | 90 | 1013.8 |
| 20260507040415 | 5 | 95 | 0.0 | 3.2 | 0.00 | 0.03 | 0.00 | 90 | 1013.7 |
| 20260507035915 | 5 | 79 | 1.6 | 3.2 | 0.00 | 0.05 | 0.00 | 90 | 1013.6 |
| 20260507035415 | 6 | 107 | 1.6 | 3.2 | 0.00 | 0.05 | 0.00 | 90 | 1013.5 |
| 20260507033415 | 6 | 126 | 0.0 | 4.8 | 0.00 | 0.05 | 0.00 | 90 | 1013.3 |
| 20260507032914 | 6 | 76 | 0.0 | 4.8 | 0.00 | 0.05 | 0.00 | 90 | 1013.5 |
| 20260507031915 | 6 | 99 | 0.0 | 1.6 | 0.00 | 0.08 | 0.00 | 90 | 1013.5 |
| 20260507031415 | 6 | 74 | 0.0 | 1.6 | 0.00 | 0.08 | 0.00 | 90 | 1013.3 |
| 20260507030402 | 6 | 91 | 0.0 | 0.0 | 0.00 | 0.08 | 0.00 | 90 | 1013.4 |
| 20260507025904 | 6 | 219 | 0.0 | 0.0 | 0.00 | 0.08 | 0.00 | 90 | 1013.4 |
| 20260507024338 | 6 | 186 | 0.0 | 1.6 | 0.00 | 0.08 | 0.00 | 90 | 1013.6 |
| 20260507023852 | 6 | 94 | 0.0 | 3.2 | 0.00 | 0.08 | 0.00 | 90 | 1013.7 |
| 20260507022852 | 6 | 190 | 0.0 | 3.2 | 0.00 | 0.08 | 0.00 | 89 | 1013.6 |
| 20260507022339 | 6 | 213 | 0.0 | 3.2 | 0.00 | 0.08 | 0.00 | 89 | 1013.5 |
| 20260507021838 | 6 | 234 | 0.0 | 1.6 | 0.00 | 0.08 | 0.00 | 89 | 1013.5 |
| 20260507021352 | 6 | 199 | 0.0 | 1.6 | 0.00 | 0.08 | 0.00 | 89 | 1013.4 |
| 20260507020840 | 6 | 126 | 0.0 | 1.6 | 0.00 | 0.08 | 0.00 | 89 | 1013.3 |
| 20260507020340 | 7 | 180 | 0.0 | 1.6 | 0.00 | 0.10 | 0.00 | 89 | 1013.3 |
| 20260507015855 | 7 | 227 | 0.0 | 1.6 | 0.00 | 0.10 | 0.00 | 89 | 1013.4 |
| 20260507015331 | 7 | 207 | 0.0 | 1.6 | 0.00 | 0.10 | 0.00 | 89 | 1013.4 |
| 20260507014830 | 7 | 89 | 0.0 | 0.0 | 0.00 | 0.10 | 0.00 | 89 | 1013.6 |
| 20260507014330 | 7 | 89 | 0.0 | 0.0 | 0.00 | 0.10 | 0.00 | 89 | 1013.2 |
| 20260507013831 | 7 | 89 | 0.0 | 0.0 | 0.00 | 0.10 | 0.00 | 89 | 1013.2 |
| 20260507013330 | 7 | 89 | 0.0 | 3.2 | 0.00 | 0.10 | 0.00 | 88 | 1013.3 |
| 20260507012829 | 7 | 89 | 0.0 | 3.2 | 0.00 | 0.10 | 0.00 | 88 | 1013.4 |
| 20260507012330 | 7 | 53 | 0.0 | 3.2 | 0.00 | 0.10 | 0.00 | 88 | 1013.5 |
| 20260507011831 | 7 | 87 | 0.0 | 3.2 | 0.00 | 0.10 | 0.00 | 88 | 1013.2 |
| 20260507011330 | 7 | 71 | 0.0 | 3.2 | 0.00 | 0.10 | 0.00 | 88 | 1013.3 |
| 20260507010830 | 7 | 79 | 0.0 | 1.6 | 0.00 | 0.10 | 0.00 | 88 | 1013.3 |
| 20260507010331 | 7 | 90 | 0.0 | 1.6 | 0.00 | 0.13 | 0.00 | 88 | 1013.1 |
| 20260507005330 | 7 | 209 | 0.0 | 1.6 | 0.00 | 0.13 | 0.00 | 88 | 1013.2 |
| 20260507004832 | 7 | 133 | 0.0 | 0.0 | 0.00 | 0.13 | 0.00 | 88 | 1013.1 |
| 20260507004331 | 7 | 245 | 0.0 | 1.6 | 0.00 | 0.13 | 0.00 | 88 | 1013.3 |
| 20260507003835 | 7 | 245 | 0.0 | 3.2 | 0.00 | 0.13 | 0.00 | 88 | 1013.1 |
| 20260507003332 | 7 | 37 | 0.0 | 3.2 | 0.00 | 0.13 | 0.00 | 88 | 1013.1 |
| 20260507002831 | 7 | 66 | 0.0 | 0.0 | 0.00 | 0.13 | 0.00 | 88 | 1013.1 |
| 20260507002333 | 8 | 269 | 0.0 | 1.6 | 0.00 | 0.13 | 0.00 | 87 | 1013.0 |
| 20260507001831 | 8 | 65 | 0.0 | 4.8 | 0.00 | 0.13 | 0.00 | 87 | 1013.2 |
| 20260507001330 | 8 | 57 | 0.0 | 4.8 | 0.00 | 0.13 | 0.00 | 87 | 1013.1 |
| 20260507000830 | 8 | 61 | 0.0 | 3.2 | 0.00 | 0.13 | 0.00 | 87 | 1013.0 |
| 20260506235331 | 8 | 66 | 0.0 | 1.6 | 0.00 | 0.13 | 0.00 | 86 | 1013.0 |
| 20260506234831 | 8 | 70 | 0.0 | 3.2 | 0.00 | 0.13 | 0.00 | 86 | 1013.1 |
| 20260506234333 | 8 | 68 | 0.0 | 3.2 | 0.00 | 0.13 | 0.00 | 86 | 1013.0 |
| 20260506233830 | 8 | 68 | 0.0 | 3.2 | 0.00 | 0.13 | 0.00 | 86 | 1013.0 |
| 20260506232330 | 9 | 61 | 0.0 | 3.2 | 0.00 | 0.13 | 0.00 | 86 | 1013.2 |
| 20260506231830 | 9 | 22 | 3.2 | 3.2 | 0.00 | 0.13 | 0.00 | 86 | 1013.0 |
| 20260506231330 | 9 | 9 | 0.0 | 3.2 | 0.00 | 0.13 | 0.00 | 86 | 1013.0 |
| 20260506230830 | 9 | 36 | 0.0 | 3.2 | 0.00 | 0.13 | 0.00 | 86 | 1013.0 |
| 20260506225831 | 9 | 77 | 1.6 | 3.2 | 0.00 | 0.13 | 0.00 | 86 | 1013.0 |
| 20260506225334 | 9 | 37 | 0.0 | 3.2 | 0.00 | 0.13 | 0.00 | 86 | 1013.0 |
| 20260506224832 | 9 | 33 | 0.0 | 3.2 | 0.00 | 0.13 | 0.00 | 85 | 1012.9 |
| 20260506224332 | 9 | 94 | 0.0 | 3.2 | 0.00 | 0.13 | 0.00 | 85 | 1013.0 |
| 20260506223831 | 9 | 95 | 0.0 | 1.6 | 0.00 | 0.13 | 0.00 | 85 | 1012.9 |
| 20260506223334 | 9 | 283 | 0.0 | 1.6 | 0.00 | 0.13 | 0.00 | 84 | 1012.9 |
| 20260506222831 | 9 | 232 | 0.0 | 1.6 | 0.00 | 0.13 | 0.00 | 84 | 1012.8 |
| 20260506222323 | 9 | 73 | 0.0 | 1.6 | 0.00 | 0.13 | 0.00 | 83 | 1012.7 |
| 20260506221818 | 10 | 111 | 0.0 | 1.6 | 0.00 | 0.13 | 0.00 | 83 | 1012.8 |
| 20260506220755 | 10 | 259 | 0.0 | 3.2 | 0.00 | 0.13 | 0.00 | 82 | 1012.8 |
| 20260506220245 | 10 | 249 | 0.0 | 3.2 | 0.00 | 0.13 | 0.00 | 82 | 1012.9 |
| 20260506215744 | 10 | 264 | 1.6 | 3.2 | 0.00 | 0.13 | 0.13 | 82 | 1012.8 |
| 20260506215243 | 10 | 245 | 0.0 | 3.2 | 0.00 | 0.13 | 0.13 | 81 | 1012.9 |
| 20260506214731 | 10 | 284 | 0.0 | 3.2 | 0.00 | 0.13 | 0.13 | 81 | 1012.8 |
| 20260506214231 | 10 | 256 | 0.0 | 3.2 | 0.00 | 0.13 | 0.13 | 81 | 1012.9 |
| 20260506213731 | 10 | 281 | 3.2 | 3.2 | 0.00 | 0.13 | 0.13 | 81 | 1012.5 |
| 20260506213231 | 10 | 263 | 1.6 | 3.2 | 0.00 | 0.13 | 0.13 | 81 | 1012.9 |
| 20260506212733 | 10 | 283 | 1.6 | 4.8 | 0.00 | 0.13 | 0.13 | 81 | 1012.6 |
| 20260506212231 | 10 | 310 | 1.6 | 4.8 | 0.00 | 0.13 | 0.13 | 80 | 1012.6 |
| 20260506211731 | 11 | 312 | 1.6 | 4.8 | 0.00 | 0.13 | 0.13 | 80 | 1012.7 |
| 20260506211232 | 11 | 314 | 1.6 | 6.4 | 0.00 | 0.13 | 0.13 | 79 | 1012.5 |
| 20260506210732 | 11 | 325 | 3.2 | 6.4 | 0.00 | 0.13 | 0.13 | 79 | 1012.5 |
| 20260506210232 | 11 | 307 | 4.8 | 6.4 | 0.00 | 0.13 | 0.13 | 79 | 1012.4 |
| 20260506205231 | 11 | 312 | 1.6 | 9.7 | 0.00 | 0.13 | 0.13 | 78 | 1012.4 |
| 20260506204734 | 11 | 270 | 8.0 | 12.9 | 0.00 | 0.13 | 0.13 | 78 | 1012.6 |
| 20260506204231 | 11 | 298 | 4.8 | 12.9 | 0.00 | 0.13 | 0.13 | 77 | 1012.4 |
| 20260506203732 | 11 | 277 | 4.8 | 8.0 | 0.00 | 0.13 | 0.13 | 78 | 1012.5 |
| 20260506203233 | 11 | 330 | 3.2 | 8.0 | 0.00 | 0.13 | 0.13 | 77 | 1012.3 |
| 20260506202231 | 11 | 286 | 3.2 | 8.0 | 0.00 | 0.13 | 0.13 | 77 | 1012.2 |
| 20260506201731 | 12 | 32 | 1.6 | 8.0 | 0.00 | 0.13 | 0.13 | 76 | 1012.1 |
| 20260506201223 | 12 | 249 | 3.2 | 9.7 | 0.00 | 0.13 | 0.13 | 76 | 1012.2 |
| 20260506200717 | 12 | 9 | 3.2 | 9.7 | 0.00 | 0.13 | 0.13 | 75 | 1012.0 |
| 20260506200217 | 12 | 355 | 1.6 | 6.4 | 0.00 | 0.13 | 0.13 | 75 | 1011.8 |
| 20260506195720 | 12 | 332 | 3.2 | 8.0 | 0.00 | 0.13 | 0.13 | 75 | 1011.8 |
| 20260506194718 | 12 | 54 | 0.0 | 8.0 | 0.00 | 0.13 | 0.13 | 75 | 1011.7 |
| 20260506193718 | 12 | 314 | 0.0 | 8.0 | 0.00 | 0.13 | 0.13 | 76 | 1011.4 |
| 20260506193217 | 12 | 322 | 0.0 | 3.2 | 0.00 | 0.13 | 0.13 | 76 | 1011.4 |
| 20260506192706 | 12 | 331 | 0.0 | 3.2 | 0.00 | 0.13 | 0.13 | 76 | 1011.2 |
| 20260506192208 | 12 | 34 | 0.0 | 4.8 | 0.00 | 0.13 | 0.13 | 75 | 1011.3 |
| 20260506191706 | 12 | 89 | 0.0 | 4.8 | 0.00 | 0.13 | 0.13 | 75 | 1011.2 |
| 20260506191206 | 12 | 34 | 3.2 | 4.8 | 0.00 | 0.13 | 0.13 | 74 | 1011.3 |
| 20260506190710 | 13 | 8 | 3.2 | 4.8 | 0.00 | 0.13 | 0.13 | 74 | 1011.2 |
| 20260506190206 | 13 | 85 | 0.0 | 6.4 | 0.00 | 0.13 | 0.13 | 73 | 1011.0 |
| 20260506185706 | 13 | 59 | 3.2 | 8.0 | 0.00 | 0.13 | 0.13 | 72 | 1011.0 |
| 20260506185206 | 13 | 25 | 6.4 | 9.7 | 0.00 | 0.13 | 0.13 | 72 | 1011.0 |
| 20260506184706 | 13 | 282 | 6.4 | 9.7 | 0.00 | 0.13 | 0.13 | 71 | 1011.2 |
| 20260506184205 | 13 | 43 | 4.8 | 9.7 | 0.00 | 0.13 | 0.13 | 70 | 1011.1 |
| 20260506183708 | 13 | 28 | 4.8 | 11.3 | 0.00 | 0.13 | 0.13 | 70 | 1011.0 |
| 20260506183208 | 13 | 316 | 1.6 | 11.3 | 0.00 | 0.13 | 0.13 | 69 | 1010.8 |
| 20260506182708 | 13 | 70 | 9.7 | 9.7 | 0.00 | 0.13 | 0.13 | 68 | 1010.8 |
| 20260506182206 | 13 | 10 | 4.8 | 12.9 | 0.00 | 0.13 | 0.13 | 68 | 1010.8 |
| 20260506181209 | 13 | 305 | 4.8 | 9.7 | 0.00 | 0.13 | 0.13 | 67 | 1010.5 |
| 20260506180707 | 14 | 309 | 3.2 | 14.5 | 0.00 | 0.13 | 0.13 | 67 | 1010.5 |
| 20260506180218 | 14 | 5 | 3.2 | 14.5 | 0.00 | 0.13 | 0.13 | 67 | 1010.5 |
| 20260506175706 | 14 | 277 | 9.7 | 14.5 | 0.00 | 0.13 | 0.13 | 67 | 1010.3 |
| 20260506175206 | 14 | 4 | 3.2 | 14.5 | 0.00 | 0.13 | 0.13 | 67 | 1010.4 |
| 20260506174711 | 14 | 260 | 6.4 | 14.5 | 0.00 | 0.13 | 0.13 | 67 | 1010.3 |
| 20260506174209 | 14 | 291 | 4.8 | 9.7 | 0.00 | 0.13 | 0.13 | 69 | 1010.0 |
| 20260506173707 | 14 | 266 | 4.8 | 9.7 | 0.00 | 0.13 | 0.13 | 69 | 1010.1 |
| 20260506173207 | 14 | 303 | 3.2 | 9.7 | 0.00 | 0.13 | 0.13 | 69 | 1009.9 |
| 20260506172706 | 14 | 296 | 3.2 | 9.7 | 0.00 | 0.13 | 0.13 | 69 | 1009.9 |
| 20260506172206 | 14 | 274 | 3.2 | 8.0 | 0.00 | 0.13 | 0.13 | 69 | 1009.9 |
| 20260506171705 | 14 | 287 | 6.4 | 9.7 | 0.00 | 0.13 | 0.13 | 68 | 1009.9 |
| 20260506171206 | 14 | 323 | 3.2 | 9.7 | 0.00 | 0.13 | 0.13 | 68 | 1010.2 |
| 20260506170706 | 14 | 268 | 4.8 | 9.7 | 0.00 | 0.13 | 0.13 | 68 | 1010.0 |
| 20260506170208 | 14 | 265 | 4.8 | 9.7 | 0.00 | 0.13 | 0.13 | 67 | 1010.0 |
| 20260506165706 | 14 | 281 | 8.0 | 11.3 | 0.00 | 0.13 | 0.13 | 67 | 1010.0 |
| 20260506164206 | 15 | 261 | 9.7 | 14.5 | 0.00 | 0.15 | 0.13 | 65 | 1010.0 |
| 20260506163709 | 15 | 285 | 6.4 | 8.0 | 0.00 | 0.15 | 0.13 | 64 | 1009.9 |
| 20260506163205 | 15 | 274 | 4.8 | 8.0 | 0.00 | 0.15 | 0.13 | 63 | 1009.8 |
| 20260506162710 | 15 | 314 | 3.2 | 12.9 | 0.00 | 0.15 | 0.13 | 62 | 1009.9 |
| 20260506162211 | 15 | 284 | 4.8 | 20.9 | 0.00 | 0.15 | 0.13 | 61 | 1009.9 |
| 20260506161718 | 15 | 294 | 4.8 | 20.9 | 0.00 | 0.15 | 0.13 | 59 | 1010.4 |
| 20260506161212 | 15 | 266 | 11.3 | 17.7 | 0.00 | 0.15 | 0.13 | 61 | 1010.4 |
| 20260506160705 | 15 | 266 | 6.4 | 14.5 | 0.00 | 0.15 | 0.13 | 61 | 1010.2 |
| 20260506160218 | 15 | 347 | 3.2 | 19.3 | 0.00 | 0.15 | 0.13 | 59 | 1010.3 |
| 20260506155706 | 15 | 304 | 3.2 | 19.3 | 0.00 | 0.15 | 0.13 | 62 | 1010.2 |
| 20260506155205 | 15 | 6 | 6.4 | 12.9 | 0.00 | 0.15 | 0.13 | 61 | 1010.7 |
| 20260506154706 | 15 | 258 | 1.6 | 12.9 | 0.00 | 0.15 | 0.13 | 65 | 1010.3 |
| 20260506153706 | 15 | 2 | 3.2 | 9.7 | 0.00 | 0.15 | 0.13 | 64 | 1010.1 |
| 20260506153206 | 15 | 346 | 3.2 | 12.9 | 0.00 | 0.15 | 0.13 | 64 | 1010.0 |
| 20260506152706 | 15 | 267 | 6.4 | 12.9 | 0.00 | 0.15 | 0.13 | 64 | 1009.9 |
| 20260506152206 | 15 | 318 | 3.2 | 11.3 | 0.00 | 0.15 | 0.13 | 66 | 1010.1 |
| 20260506151706 | 15 | 20 | 6.4 | 9.7 | 0.00 | 0.15 | 0.13 | 65 | 1010.1 |
| 20260506151206 | 15 | 306 | 4.8 | 9.7 | 0.00 | 0.15 | 0.13 | 66 | 1010.0 |
| 20260506150706 | 15 | 3 | 3.2 | 9.7 | 0.00 | 0.15 | 0.13 | 65 | 1009.8 |
| 20260506150206 | 15 | 272 | 3.2 | 9.7 | 0.00 | 0.15 | 0.13 | 65 | 1009.9 |
| 20260506145706 | 15 | 321 | 6.4 | 9.7 | 0.00 | 0.15 | 0.13 | 64 | 1010.0 |
| 20260506145206 | 15 | 28 | 4.8 | 14.5 | 0.00 | 0.15 | 0.13 | 63 | 1010.1 |
| 20260506144720 | 15 | 104 | 4.8 | 19.3 | 0.00 | 0.15 | 0.13 | 65 | 1010.1 |
| 20260506144209 | 14 | 297 | 8.0 | 19.3 | 0.00 | 0.15 | 0.13 | 65 | 1010.1 |
| 20260506143706 | 14 | 257 | 4.8 | 12.9 | 0.00 | 0.15 | 0.13 | 66 | 1010.2 |
| 20260506143205 | 15 | 325 | 4.8 | 11.3 | 0.00 | 0.15 | 0.13 | 66 | 1010.1 |
| 20260506142706 | 14 | 63 | 9.7 | 9.7 | 0.00 | 0.15 | 0.13 | 64 | 1010.4 |
| 20260506142205 | 14 | 328 | 4.8 | 9.7 | 0.00 | 0.15 | 0.13 | 64 | 1010.3 |
| 20260506141206 | 14 | 265 | 6.4 | 12.9 | 0.00 | 0.18 | 0.13 | 69 | 1010.2 |
| 20260506140705 | 14 | 303 | 4.8 | 16.1 | 0.00 | 0.18 | 0.13 | 67 | 1010.3 |
| 20260506140206 | 14 | 280 | 6.4 | 16.1 | 0.00 | 0.18 | 0.13 | 67 | 1010.3 |
| 20260506135705 | 14 | 282 | 4.8 | 20.9 | 0.00 | 0.18 | 0.13 | 69 | 1010.1 |
| 20260506135208 | 13 | 331 | 4.8 | 20.9 | 0.00 | 0.18 | 0.13 | 72 | 1010.4 |
| 20260506134706 | 13 | 284 | 6.4 | 16.1 | 0.00 | 0.18 | 0.13 | 71 | 1010.3 |
| 20260506134206 | 13 | 303 | 6.4 | 16.1 | 0.00 | 0.18 | 0.13 | 71 | 1010.3 |
| 20260506133705 | 13 | 285 | 4.8 | 14.5 | 0.00 | 0.18 | 0.13 | 71 | 1010.2 |
| 20260506133206 | 13 | 257 | 9.7 | 11.3 | 0.00 | 0.20 | 0.13 | 73 | 1010.8 |
| 20260506132706 | 13 | 246 | 3.2 | 11.3 | 0.00 | 0.20 | 0.13 | 71 | 1010.4 |
| 20260506132206 | 14 | 282 | 6.4 | 9.7 | 0.00 | 0.20 | 0.13 | 73 | 1010.4 |
| 20260506131206 | 13 | 288 | 6.4 | 11.3 | 0.00 | 0.20 | 0.13 | 73 | 1010.2 |
| 20260506130706 | 13 | 29 | 3.2 | 9.7 | 0.00 | 0.23 | 0.13 | 72 | 1010.2 |
| 20260506130206 | 13 | 359 | 3.2 | 16.1 | 0.00 | 0.23 | 0.13 | 73 | 1010.3 |
| 20260506125711 | 13 | 344 | 3.2 | 16.1 | 0.00 | 0.23 | 0.13 | 75 | 1010.1 |
| 20260506125206 | 13 | 266 | 6.4 | 8.0 | 0.00 | 0.25 | 0.13 | 75 | 1010.2 |
| 20260506124706 | 13 | 101 | 3.2 | 8.0 | 0.00 | 0.25 | 0.13 | 75 | 1010.1 |
| 20260506124206 | 13 | 292 | 3.2 | 8.0 | 0.00 | 0.25 | 0.13 | 77 | 1010.4 |
| 20260506123706 | 12 | 81 | 4.8 | 9.7 | 0.00 | 0.28 | 0.13 | 77 | 1010.1 |
| 20260506123205 | 12 | 2 | 6.4 | 9.7 | 0.00 | 0.28 | 0.13 | 76 | 1010.1 |
| 20260506122706 | 12 | 325 | 4.8 | 11.3 | 0.00 | 0.28 | 0.13 | 79 | 1010.5 |
| 20260506122206 | 12 | 7 | 3.2 | 11.3 | 0.00 | 0.30 | 0.13 | 78 | 1010.3 |
| 20260506121718 | 12 | 304 | 3.2 | 8.0 | 0.00 | 0.30 | 0.13 | 79 | 1010.3 |
| 20260506121206 | 12 | 78 | 4.8 | 12.9 | 0.00 | 0.33 | 0.13 | 79 | 1010.2 |
| 20260506120706 | 12 | 264 | 4.8 | 12.9 | 0.00 | 0.33 | 0.13 | 79 | 1010.2 |
| 20260506120209 | 12 | 359 | 1.6 | 12.9 | 0.00 | 0.33 | 0.13 | 81 | 1010.1 |
| 20260506115706 | 12 | 320 | 3.2 | 12.9 | 0.00 | 0.36 | 0.13 | 81 | 1010.2 |
| 20260506115206 | 12 | 268 | 9.7 | 12.9 | 0.00 | 0.36 | 0.13 | 81 | 1010.2 |
| 20260506114707 | 12 | 91 | 4.8 | 8.0 | 0.00 | 0.38 | 0.13 | 79 | 1010.1 |
| 20260506114206 | 12 | 282 | 3.2 | 8.0 | 0.00 | 0.38 | 0.13 | 79 | 1010.2 |
| 20260506113706 | 12 | 290 | 3.2 | 12.9 | 0.00 | 0.38 | 0.13 | 79 | 1010.0 |
| 20260506113207 | 12 | 15 | 0.0 | 12.9 | 0.00 | 0.38 | 0.13 | 78 | 1010.2 |
| 20260506112706 | 12 | 36 | 3.2 | 9.7 | 0.00 | 0.41 | 0.13 | 80 | 1010.3 |
| 20260506112207 | 12 | 64 | 4.8 | 8.0 | 0.00 | 0.41 | 0.13 | 82 | 1010.0 |
| 20260506111706 | 12 | 346 | 4.8 | 9.7 | 0.00 | 0.41 | 0.13 | 82 | 1010.2 |
| 20260506111209 | 12 | 269 | 6.4 | 9.7 | 0.00 | 0.43 | 0.13 | 82 | 1010.1 |
| 20260506110205 | 11 | 346 | 4.8 | 9.7 | 0.00 | 0.46 | 0.13 | 83 | 1010.1 |